Date String (YYYY-MM-DD hh:mm:ss) UTC,Instrument flags,Ambient pressure (hPa),Sample flow (lpm),Bypass flow (lpm),Sample temperature (°C),Ambient temperature (°C),ASC tube jacket temperature (°C),LED temperature (°C),Box temperature (°C),Sample RH (%),Span deviation,Mass concentration (μg/m³),Mass concentration (μg/m³),Mass concentration (μg/m³)
DateTimeUTC,F1_M11,P_M11,Q1_M11,Q2_M11,T1_M11,T2_M11,T3_M11,T4_M11,T5_M11,U1_M11,ZSPAN_M11,X2_M11,X0_M11,X1_M11
2021-09-20 17:00:00,,0829.2,4.99,0.00,30.2,26.4,00.0,39.4,31.3,12.2,0000.0,0003.29,0011.71,0002.06
2021-09-20 17:01:00,,0829.2,5.00,0.00,30.1,26.8,00.0,39.4,31.4,12.2,0000.0,0003.29,0011.52,0002.07
2021-09-20 17:02:00,,0829.2,5.01,0.00,30.0,27.2,00.0,39.3,31.5,12.4,0000.0,0003.29,0012.20,0002.09
2021-09-20 17:03:00,,0829.3,5.00,0.00,30.0,27.6,00.0,39.3,31.6,12.4,0000.0,0003.32,0012.47,0002.10
2021-09-20 17:04:00,,0829.2,4.98,0.00,30.0,28.0,00.0,39.3,31.6,12.2,0000.0,0003.35,0011.57,0002.10
2021-09-20 17:05:00,,0829.3,5.00,0.00,30.1,28.3,00.0,39.2,31.7,12.3,0000.0,0003.36,0011.09,0002.11
2021-09-20 17:06:00,,0829.3,5.00,0.00,30.1,28.5,00.0,39.2,31.8,12.4,0000.0,0003.34,0011.05,0002.09
2021-09-20 17:07:00,,0829.3,5.00,0.00,30.1,28.7,00.0,39.2,31.8,12.3,0000.0,0003.35,0010.96,0002.10
2021-09-20 17:08:00,,0829.2,5.00,0.00,30.1,28.8,00.0,39.2,31.9,12.3,0000.0,0003.34,0010.80,0002.11
2021-09-20 17:09:00,,0829.3,5.01,0.00,30.1,29.0,00.0,39.2,31.9,12.3,0000.0,0003.29,0010.09,0002.12
2021-09-20 17:10:00,,0829.2,4.99,0.00,30.2,29.1,00.0,39.3,32.0,12.1,0000.0,0003.33,0009.63,0002.15
2021-09-20 17:11:00,,0829.3,5.01,0.00,30.2,29.2,00.0,39.3,32.0,12.0,0000.0,0003.31,0009.33,0002.15
2021-09-20 17:12:00,,0829.3,4.99,0.00,30.2,29.2,00.0,39.3,32.0,12.2,0000.0,0003.31,0009.10,0002.15
2021-09-20 17:13:00,,0829.3,5.01,0.00,30.3,29.3,00.0,39.3,32.1,12.1,0000.0,0003.28,0008.87,0002.15
2021-09-20 17:14:00,,0829.2,5.00,0.00,30.3,29.4,00.0,39.3,32.1,12.0,0000.0,0003.24,0008.57,0002.14
2021-09-20 17:15:00,,0829.3,4.99,0.00,30.3,29.4,00.0,39.3,32.1,12.0,0000.0,0003.21,0008.45,0002.14
2021-09-20 17:16:00,,0829.3,5.01,0.00,30.4,29.5,00.0,39.3,32.1,11.9,0000.0,0003.22,0008.17,0002.16
2021-09-20 17:17:00,,0829.3,5.00,0.00,30.4,29.5,00.0,39.4,32.2,12.0,0000.0,0003.23,0008.15,0002.18
2021-09-20 17:18:00,,0829.2,5.01,0.00,30.4,29.6,00.0,39.4,32.2,12.1,0000.0,0003.28,0008.13,0002.18
2021-09-20 17:19:00,,0829.2,4.99,0.00,30.4,29.6,00.0,39.4,32.2,11.9,0000.0,0003.29,0008.14,0002.17
2021-09-20 17:20:00,,0829.3,5.00,0.00,30.4,28.1,00.0,39.4,31.8,11.9,0000.0,0003.29,0008.31,0002.15
2021-09-20 17:21:00,,0829.2,5.00,0.00,30.2,26.5,00.0,39.4,31.4,12.1,0000.0,0003.28,0008.28,0002.14
2021-09-20 17:22:00,,0829.3,5.02,0.00,30.1,26.5,00.0,39.3,31.3,12.1,0000.0,0003.28,0008.08,0002.13
2021-09-20 17:23:00,,0829.3,4.99,0.00,30.0,26.9,00.0,39.3,31.4,12.3,0000.0,0003.26,0007.85,0002.12
2021-09-20 17:24:00,,0829.2,5.02,0.00,30.0,27.3,00.0,39.2,31.5,12.3,0000.0,0003.25,0007.22,0002.11
2021-09-20 17:25:00,,0829.3,5.00,0.00,30.0,27.7,00.0,39.2,31.6,12.1,0000.0,0003.28,0008.61,0002.11
2021-09-20 17:26:00,,0829.3,4.99,0.00,30.0,28.1,00.0,39.2,31.6,12.2,0000.0,0003.26,0008.62,0002.11
2021-09-20 17:27:00,,0829.2,5.01,0.00,30.0,28.4,00.0,39.2,31.7,12.3,0000.0,0003.27,0009.18,0002.10
2021-09-20 17:28:00,,0829.2,4.98,0.00,30.0,28.6,00.0,39.2,31.8,12.4,0000.0,0003.27,0009.44,0002.09
2021-09-20 17:29:00,,0829.2,5.00,0.00,30.1,28.7,00.0,39.2,31.8,12.3,0000.0,0003.22,0009.35,0002.09
2021-09-20 17:30:00,,0829.3,4.99,0.00,30.1,28.9,00.0,39.2,31.9,12.1,0000.0,0003.24,0009.39,0002.09
2021-09-20 17:31:00,,0829.3,5.01,0.00,30.1,29.0,00.0,39.2,31.9,11.9,0000.0,0003.26,0009.52,0002.10
2021-09-20 17:32:00,,0829.2,4.99,0.00,30.2,29.1,00.0,39.2,32.0,11.9,0000.0,0003.24,0010.38,0002.11
2021-09-20 17:33:00,,0829.2,5.01,0.00,30.2,29.2,00.0,39.2,32.0,11.9,0000.0,0003.21,0010.81,0002.10
2021-09-20 17:34:00,,0829.2,5.00,0.00,30.2,29.3,00.0,39.2,32.1,11.8,0000.0,0003.22,0011.11,0002.09
2021-09-20 17:35:00,,0829.2,5.01,0.00,30.3,29.4,00.0,39.2,32.1,11.9,0000.0,0003.21,0010.74,0002.09
2021-09-20 17:36:00,,0829.2,5.00,0.00,30.3,29.4,00.0,39.3,32.1,11.9,0000.0,0003.19,0009.89,0002.08
2021-09-20 17:37:00,,0829.2,5.00,0.00,30.3,29.5,00.0,39.3,32.1,11.9,0000.0,0003.20,0010.61,0002.09
2021-09-20 17:38:00,,0829.2,5.00,0.00,30.3,28.2,00.0,39.3,31.8,12.0,0000.0,0003.17,0010.16,0002.09
2021-09-20 17:39:00,,0829.1,4.99,0.00,30.1,26.3,00.0,39.3,31.2,12.0,0000.0,0003.15,0010.15,0002.09
2021-09-20 17:40:00,,0829.1,5.00,0.00,30.0,26.3,00.0,39.2,31.2,12.1,0000.0,0003.16,0010.56,0002.09
2021-09-20 17:41:00,,0829.1,5.01,0.00,29.9,26.7,00.0,39.2,31.3,12.1,0000.0,0003.14,0011.28,0002.09
2021-09-20 17:42:00,,0829.1,5.00,0.00,29.9,27.2,00.0,39.1,31.4,12.2,0000.0,0003.13,0011.02,0002.09
2021-09-20 17:43:00,,0829.2,5.00,0.00,29.9,27.6,00.0,39.1,31.5,12.3,0000.0,0003.13,0010.13,0002.10
2021-09-20 17:44:00,,0829.2,4.99,0.00,29.9,27.9,00.0,39.1,31.5,12.2,0000.0,0003.17,0009.76,0002.11
2021-09-20 17:45:00,,0829.2,5.01,0.00,29.9,28.2,00.0,39.1,31.6,12.2,0000.0,0003.17,0009.59,0002.12
2021-09-20 17:46:00,,0829.2,4.99,0.00,29.9,28.5,00.0,39.1,31.7,12.0,0000.0,0003.20,0010.12,0002.13
2021-09-20 17:47:00,,0829.2,5.00,0.00,30.0,28.6,00.0,39.1,31.7,12.0,0000.0,0003.20,0010.54,0002.13
2021-09-20 17:48:00,,0829.1,5.02,0.00,30.0,28.8,00.0,39.1,31.8,12.0,0000.0,0003.16,0010.38,0002.10
2021-09-20 17:49:00,,0829.2,5.00,0.00,30.0,28.9,00.0,39.1,31.9,12.1,0000.0,0003.17,0010.63,0002.10
2021-09-20 17:50:00,,0829.2,4.99,0.00,30.1,29.0,00.0,39.1,31.9,12.1,0000.0,0003.20,0010.40,0002.09
2021-09-20 17:51:00,,0829.3,5.00,0.00,30.1,29.1,00.0,39.1,31.9,12.1,0000.0,0003.20,0010.01,0002.08
2021-09-20 17:52:00,,0829.3,4.99,0.00,30.2,29.2,00.0,39.1,32.0,12.1,0000.0,0003.17,0009.92,0002.06
2021-09-20 17:53:00,,0829.2,5.01,0.00,30.2,29.3,00.0,39.1,32.0,11.7,0000.0,0003.17,0010.63,0002.05
2021-09-20 17:54:00,,0829.2,5.00,0.00,30.2,29.3,00.0,39.2,32.0,11.6,0000.0,0003.14,0010.79,0002.02
2021-09-20 17:55:00,,0829.2,5.00,0.00,30.2,28.2,00.0,39.2,31.8,11.7,0000.0,0003.08,0011.25,0002.01
2021-09-20 17:56:00,,0829.3,4.99,0.00,30.0,26.3,00.0,39.1,31.2,11.9,0000.0,0003.09,0012.29,0002.01
2021-09-20 17:57:00,,0829.3,5.00,0.00,29.9,26.1,00.0,39.1,31.1,12.0,0000.0,0003.09,0012.41,0002.02
2021-09-20 17:58:00,,0829.3,5.00,0.00,29.8,26.6,00.0,39.1,31.2,11.8,0000.0,0003.11,0011.79,0002.02
2021-09-20 17:59:00,,0829.3,5.00,0.00,29.8,27.0,00.0,39.0,31.3,11.8,0000.0,0003.14,0012.06,0002.03
